Location: Newark
(31.5350°N, 35.0986°E)
Time: 15:18:08
(UTC+00:00)

Vanguard 1 Rocket - All Passes

Search period start: 19 September 2019 00:00
Search period end: 29 September 2019 00:00
Orbit: 651 x 4225 km, 34.3° (Epoch: 19 September)

Date Brightness Start Highest point End Pass type
(mag) Time Alt. Az. Time Alt. Az. Time Alt. Az.
19 Sep - 11:30:43 10° S 11:49:39 26° SE 12:05:20 10° E daylight
19 Sep - 13:56:25 10° SW 14:20:53 59° SSE 14:35:47 10° ENE daylight
19 Sep - 16:29:53 10° WSW 16:51:04 88° NNW 17:01:34 10° ENE visible
19 Sep - 19:05:19 10° W 19:19:18 80° N 19:26:14 10° E visible
19 Sep - 21:37:07 10° WNW 21:44:52 43° SW 21:49:40 10° SE visible
20 Sep - 10:22:58 10° SSE 10:35:17 15° SE 10:46:52 10° ESE daylight
20 Sep - 12:42:44 10° SSW 13:06:30 46° SE 13:23:21 10° E daylight
20 Sep - 15:13:31 10° WSW 15:37:33 81° SSE 15:50:27 10° ENE daylight
20 Sep - 17:49:15 10° W 18:06:58 78° N 18:15:34 10° E visible
20 Sep - 20:23:03 10° WNW 20:33:57 73° SSW 20:39:44 10° ESE visible
20 Sep - 22:55:05 10° WSW 22:57:50 13° SW 23:00:12 10° SSW night (unlit)
21 Sep - 11:30:42 10° SSW 11:52:00 33° SE 12:09:34 10° E daylight
21 Sep - 13:58:03 10° SW 14:23:26 68° SSE 14:38:53 10° ENE daylight
21 Sep - 16:32:29 10° W 16:53:58 83° N 17:04:41 10° E visible
21 Sep - 19:08:04 10° WNW 19:22:22 86° NNE 19:29:24 10° ESE visible
21 Sep - 21:40:12 10° W 21:47:31 32° SW 21:52:12 10° SSE visible
22 Sep - 10:21:02 10° S 10:37:39 22° SE 10:53:13 10° E daylight
22 Sep - 12:43:55 10° SW 13:08:52 54° SSE 13:26:36 10° ENE daylight
22 Sep - 15:15:48 10° WSW 15:40:18 88° SSE 15:53:30 10° ENE daylight
22 Sep - 17:52:00 10° W 18:10:01 79° N 18:18:45 10° E visible
22 Sep - 20:25:50 10° WNW 20:36:48 60° SSW 20:42:40 10° SE visible
23 Sep - 09:18:38 10° SE 09:23:31 11° SE 09:28:26 10° ESE daylight
23 Sep - 11:31:20 10° SSW 11:54:13 41° SE 12:13:14 10° E daylight
23 Sep - 13:59:59 10° SW 14:25:59 76° SSE 14:41:54 10° ENE daylight
23 Sep - 16:35:10 10° W 16:56:56 81° N 17:07:50 10° E visible
23 Sep - 19:10:46 10° WNW 19:25:21 84° SSW 19:32:31 10° ESE visible
23 Sep - 21:43:31 10° W 21:50:00 23° SW 21:54:26 10° S visible
24 Sep - 10:20:38 10° S 10:39:48 28° SE 10:58:00 10° E daylight
24 Sep - 12:45:28 10° SW 13:11:13 63° SSE 13:29:42 10° ENE daylight
24 Sep - 15:18:18 10° WSW 15:43:05 87° NNW 15:56:35 10° ENE visible
24 Sep - 17:54:44 10° W 18:13:04 83° N 18:21:56 10° E visible
24 Sep - 20:28:38 10° WNW 20:39:28 47° SW 20:45:26 10° SE visible
25 Sep - 09:13:11 10° SSE 09:25:47 16° SE 09:38:45 10° E daylight
25 Sep - 11:32:26 10° SSW 11:56:21 49° SE 12:16:34 10° ENE daylight
25 Sep - 14:02:11 10° WSW 14:28:34 83° SSE 14:44:55 10° ENE daylight
25 Sep - 16:37:54 10° W 16:59:56 80° N 17:10:59 10° E visible
25 Sep - 19:13:25 10° WNW 19:28:13 73° SSW 19:35:31 10° ESE visible
25 Sep - 21:47:20 10° W 21:52:21 17° SW 21:56:08 10° SSW visible
26 Sep - 10:21:04 10° SSW 10:41:48 35° SE 11:01:58 10° E daylight
26 Sep - 12:47:19 10° SW 13:13:34 71° SSE 13:32:41 10° ENE daylight
26 Sep - 15:20:55 10° W 15:45:57 83° N 15:59:39 10° E visible
26 Sep - 17:57:24 10° WNW 18:16:02 89° NNE 18:25:03 10° ESE visible
26 Sep - 20:31:35 10° WNW 20:41:58 36° SW 20:47:57 10° SSE visible
27 Sep - 09:11:56 10° S 09:27:48 22° SE 09:44:42 10° E daylight
27 Sep - 11:33:55 10° SW 11:58:27 57° SE 12:19:40 10° ENE daylight
27 Sep - 14:04:35 10° WSW 14:31:12 89° SSE 14:47:55 10° ENE daylight
27 Sep - 16:40:38 10° W 17:02:55 82° N 17:14:08 10° E visible
27 Sep - 19:16:04 10° WNW 19:30:56 62° SSW 19:38:24 10° SE visible
27 Sep - 21:52:36 10° WSW 21:54:35 11° SW 21:56:23 10° SW night (unlit)
28 Sep - 08:10:12 10° SE 08:14:20 11° SE 08:18:37 10° ESE daylight
28 Sep - 10:22:04 10° SSW 10:43:43 43° SE 11:05:26 10° ENE daylight
28 Sep - 12:49:27 10° WSW 13:15:57 78° SSE 13:35:38 10° ENE daylight
28 Sep - 15:23:38 10° W 15:48:51 82° N 16:02:46 10° E visible
28 Sep - 18:00:00 10° WNW 18:18:55 83° SSW 18:28:07 10° ESE visible
28 Sep - 20:34:44 10° W 20:44:19 28° SW 20:50:12 10° S visible
